Hourly Data Report for March 24, 2004

TORONTO CITY
ONTARIO

43°40'00.000" N
79°24'00.000" W
112.50 m
6158355
71508
XTO

Download Data

Hourly Data (March 2004)
Hourly Data Report for March 24, 2004
TIME
LST
Temp Definition
°C
Dew Point Definition
°C
Rel Hum Definition
%
Precip. Amount Definition
mm

Wind Dir Definition
10's deg

Wind Spd Definition
km/h
Visibility Definition
km
Stn Press Definition
kPa
Hmdx Definition


Wind Chill Definition


Weather Definition


00:00 1.3 -5.1 62   LegendMM LegendMM LegendMM 101.34     LegendNANA
01:00 1.2 -5.1 63   LegendMM LegendMM LegendMM 101.39     LegendNANA
02:00 0.4 -5.9 63   LegendMM LegendMM LegendMM 101.41     LegendNANA
03:00 0.5 -4.8 68   LegendMM LegendMM LegendMM 101.38     LegendNANA
04:00 0.5 -4.8 68   LegendMM LegendMM LegendMM 101.35     LegendNANA
05:00 0.8 -3.8 71   LegendMM LegendMM LegendMM 101.34     LegendNANA
06:00 0.8 -2.9 76   LegendMM LegendMM LegendMM 101.33     LegendNANA
07:00 1.2 -1.8 80   LegendMM LegendMM LegendMM 101.33     LegendNANA
08:00 2.0 -1.0 80   LegendMM LegendMM LegendMM 101.31     LegendNANA
09:00 2.5 0.4 86   LegendMM LegendMM LegendMM 101.33     LegendNANA
10:00 4.3 0.3 75   LegendMM LegendMM LegendMM 101.29     LegendNANA
11:00 5.1 -0.2 69   LegendMM LegendMM LegendMM 101.22     LegendNANA
12:00 5.1 0.1 70   LegendMM LegendMM LegendMM 101.16     LegendNANA
13:00 4.7 0.5 74   LegendMM LegendMM LegendMM 101.09     LegendNANA
14:00 4.6 2.3 85   LegendMM LegendMM LegendMM 101.08     LegendNANA
15:00 4.7 3.2 90   LegendMM LegendMM LegendMM 101.03     LegendNANA
16:00 5.2 3.9 91   LegendMM LegendMM LegendMM 101.03     LegendNANA
17:00 5.2 4.0 92   LegendMM LegendMM LegendMM 101.03     LegendNANA
18:00 5.7 5.0 95   LegendMM LegendMM LegendMM 101.08     LegendNANA
19:00 6.1 5.4 95   LegendMM LegendMM LegendMM 101.06     LegendNANA
20:00 6.7 5.5 92   LegendMM LegendMM LegendMM 101.09     LegendNANA
21:00 6.7 4.5 86   LegendMM LegendMM LegendMM 101.10     LegendNANA
22:00 6.3 4.6 89   LegendMM LegendMM LegendMM 101.09     LegendNANA
23:00 6.4 5.4 93   LegendMM LegendMM LegendMM 101.05     LegendNANA

Notes on Data Quality.

Legend

  • E = Estimated
  • M = Missing
  • NA = Not Available*
  • [empty] = Indicates an unobserved value
Date modified: